www.pogodaiklimat.ru

Погода и климат >> Архив погоды >> Австралия >> Северная территория >> Мыс Уэссел


ПОГОДА на Мысе Уэссел

  • Прогноз погоды на Мысе Уэссел
  • Монитор погоды на Мысе Уэссел

АРХИВ ПОГОДЫ на Мысе Уэссел

Время (UTC), дата Ветер
(напр.,м/с)
 
Видим.   Явления Облачность Т
(С)
Тd
(С)
f
(%)
Тe
(С)
Тes
(С)
Комфортность P
(гПа)
Po
(гПа)
Тmin
(С)
Tmax
(С)
R
(мм)
R24
(мм)
S
(см)
05 10.07 ЮВ 7 н/о н/о +29.9 +20.5 57 +37 +37 очень
душно
1013.4 1011.2
06 10.07 ЮВ 6 н/о н/о +29.2 +21.9 65 +38 +38 очень
душно
1013.3 1011.1
08 10.07 ЮВ 7 н/о н/о +26.3 +20.2 69 +32 +32 очень
душно
1013.9 1011.7
09 10.07 ЮВ 8 н/о н/о +25.1 +20.6 76 +31 +31 очень
душно
1014.1 1011.9
11 10.07 Ю 8 н/о н/о +24.8 +21.7 83 +32 +32 очень
душно
1015.7 1013.5
12 10.07 Ю 8 н/о н/о +24.3 +21.6 85 +31 +31 очень
душно
1016.2 1014.0
14 10.07 Ю 8 н/о н/о +24.0 +21.1 84 +30 +30 очень
душно
1016.2 1014.0 +30.9
15 10.07 Ю 8 н/о н/о +24.0 +21.1 84 +30 +30 очень
душно
1016.2 1014.0
17 10.07 Ю 8 н/о н/о +24.1 +21.4 85 +31 +31 очень
душно
1015.5 1013.3
18 10.07 ЮВ 7 н/о н/о +23.9 +20.8 83 +30 +30 очень
душно
1015.0 1012.8
20 10.07 ЮВ 5 н/о н/о +24.2 +21.5 85 +31 +31 очень
душно
1015.4 1013.2
21 10.07 ЮВ 5 н/о н/о +23.8 +20.1 80 +29 +29 душно 1015.9 1013.7
23 10.07 ЮВ 6 н/о н/о +26.6 +22.0 76 +34 +34 очень
душно
1017.3 1015.1
00 11.07 В 7 н/о н/о +27.9 +21.9 70 +36 +36 очень
душно
1017.6 1015.4
02 11.07 ЮВ 7 н/о н/о +29.0 +21.7 65 +37 +37 очень
душно
1016.8 1014.6 +23.8
03 11.07 ЮВ 7 н/о н/о +30.2 +21.8 61 +39 +39 очень
душно
1016.2 1014.0
05 11.07 В 7 н/о н/о +26.9 +21.4 72 +34 +34 очень
душно
1015.0 1012.8
06 11.07 В 8 н/о н/о +26.4 +20.3 69 +33 +33 очень
душно
1014.8 1012.6
08 11.07 В 6 н/о н/о +26.0 +19.9 69 +32 +32 очень
душно
1015.2 1013.0
09 11.07 В 7 н/о н/о +25.4 +21.3 78 +32 +32 очень
душно
1015.7 1013.5
11 11.07 В 7 н/о н/о +25.3 +22.0 82 +33 +33 очень
душно
1017.1 1014.9
12 11.07 В 7 н/о н/о +25.3 +22.2 83 +33 +33 очень
душно
1017.7 1015.5
14 11.07 В 7 н/о н/о +25.3 +21.4 79 +32 +32 очень
душно
1017.3 1015.1 +30.6
15 11.07 В 7 н/о н/о +25.3 +21.0 77 +32 +32 очень
душно
1017.1 1014.9
17 11.07 В 6 н/о н/о +25.2 +21.7 81 +32 +32 очень
душно
1016.2 1014.0
18 11.07 ЮВ 6 н/о н/о +25.1 +21.2 79 +32 +32 очень
душно
1016.0 1013.8
20 11.07 В 4 н/о н/о +22.7 +20.4 87 +29 +29 очень
душно
1016.1 1013.9
21 11.07 В 6 н/о н/о +23.6 +21.5 88 +30 +30 очень
душно
1016.4 1014.2
23 11.07 ЮВ 6 н/о {туман} н/о +25.3 +22.6 85 +33 +33 очень
душно
1017.1 1014.9 1
00 12.07 В 7 н/о н/о +27.0 +22.4 76 +35 +35 очень
душно
1017.0 1014.8
02 12.07 ЮВ 8 н/о {туман} н/о +28.7 +22.4 69 +38 +38 очень
душно
1016.3 1014.1 +22.5
03 12.07 ЮВ 7 н/о н/о +29.8 +22.5 65 +39 +39 очень
душно
1015.5 1013.3
05 12.07 Ю 3 н/о в посл. час дождь {туман} н/о +24.0 +22.8 93 +32 +32 очень
душно
1014.1 1011.9 5
06 12.07 Ю 5 н/о н/о +25.1 +22.8 87 +33 +33 очень
душно
1014.1 1011.9
08 12.07 ЮВ 10 н/о в посл. час дождь {туман} н/о +21.7 +20.2 91 +27 +27 душно 1015.0 1012.8
09 12.07 ЮВ 6 н/о н/о +22.5 +20.2 87 +29 +29 очень
душно
1015.2 1013.0
11 12.07 ЮВ 6 н/о туман местами н/о +22.9 +21.2 90 +30 +30 очень
душно
1016.5 1014.3 1
12 12.07 Ю 6 н/о н/о +22.4 +21.2 93 +29 +29 очень
душно
1017.1 1014.9
14 12.07 ЮВ 7 н/о в посл. час дождь {туман} н/о +22.3 +21.5 95 +29 +29 очень
душно
1016.7 1014.5 +30.5
15 12.07 В 7 н/о н/о +23.3 +21.7 91 +32 +32 очень
душно
1016.1 1013.9
17 12.07 ЮВ 7 н/о {туман} н/о +23.9 +21.4 86 +30 +30 очень
душно
1014.9 1012.7 8
18 12.07 ЮВ 6 н/о н/о +23.8 +21.9 89 +31 +31 очень
душно
1014.6 1012.4
20 12.07 ЮВ 7 н/о в посл. час дождь {туман} н/о +24.0 +21.9 88 +31 +31 очень
душно
1014.9 1012.7
21 12.07 ЮВ 7 н/о н/о +23.9 +21.8 88 +31 +31 очень
душно
1015.2 1013.0
23 12.07 ЮВ 6 н/о туман н/о +24.5 +21.6 84 +31 +31 очень
душно
1016.0 1013.8 18
00 13.07 ЮВ 6 н/о н/о +23.6 +22.6 94 +31 +31 очень
душно
1016.6 1014.4
02 13.07 ЮВ 8 н/о {туман} н/о +26.2 +22.5 80 +34 +34 очень
душно
1015.7 1013.5 +21.2
03 13.07 В 6 н/о н/о +24.0 +22.8 93 +32 +32 очень
душно
1015.1 1012.9
05 13.07 ЮВ 6 н/о туман местами н/о +22.8 +22.0 95 +31 +31 очень
душно
1013.8 1011.6 6
06 13.07 ЮВ 13 н/о н/о +22.0 +21.3 96 +29 +29 очень
душно
1013.3 1011.1
08 13.07 ЮВ 14 н/о {туман} н/о +22.1 +19.8 87 +28 +28 душно 1013.5 1011.3
09 13.07 ЮВ 11 н/о н/о +23.8 +19.5 77 +29 +29 душно 1013.9 1011.7
11 13.07 ЮВ 10 н/о {туман} н/о +24.4 +21.3 83 +31 +31 очень
душно
1015.0 1012.8 0.6
12 13.07 ЮВ 10 н/о н/о +24.6 +20.7 79 +31 +31 очень
душно
1015.5 1013.3
14 13.07 ЮВ 9 н/о н/о +24.5 +20.6 79 +30 +30 очень
душно
1015.5 1013.3 +26.8
15 13.07 ЮВ 9 н/о н/о +24.0 +20.3 80 +30 +30 очень
душно
1015.1 1012.9
17 13.07 ЮВ 9 н/о н/о +23.8 +20.3 81 +29 +29 душно 1014.2 1012.0
18 13.07 ЮВ 10 н/о н/о +23.9 +20.2 80 +30 +30 очень
душно
1014.0 1011.8
20 13.07 ЮВ 9 н/о н/о +23.8 +20.9 84 +30 +30 очень
душно
1013.8 1011.6
21 13.07 Ю 10 н/о н/о +23.7 +20.8 84 +30 +30 очень
душно
1014.0 1011.8
23 13.07 ЮВ 11 н/о н/о +25.0 +20.0 74 +31 +31 очень
душно
1015.0 1012.8 7
00 14.07 Ю 10 н/о н/о +25.3 +19.7 71 +31 +31 очень
душно
1015.1 1012.9
02 14.07 ЮВ 13 н/о н/о +26.4 +19.8 67 +32 +32 очень
душно
1014.2 1012.0 +21.5
03 14.07 ЮВ 13 н/о н/о +26.1 +19.5 67 +32 +32 очень
душно
1013.5 1011.3
05 14.07 ЮВ 12 н/о н/о +23.9 +20.8 83 +30 +30 очень
душно
1012.5 1010.3
06 14.07 ЮВ 11 н/о н/о +24.5 +20.2 77 +30 +30 очень
душно
1012.3 1010.1
08 14.07 Ю 11 н/о н/о +24.5 +20.2 77 +30 +30 очень
душно
1012.4 1010.2
09 14.07 Ю 10 н/о н/о +24.6 +20.7 79 +31 +31 очень
душно
1012.9 1010.7
11 14.07 ЮВ 12 н/о н/о +24.9 +20.2 75 +31 +31 очень
душно
1014.5 1012.3
12 14.07 ЮВ 12 н/о н/о +24.6 +19.7 74 +30 +30 очень
душно
1015.3 1013.1
14 14.07 ЮВ 11 н/о н/о +24.0 +19.7 77 +29 +29 душно 1015.5 1013.3 +26.7
15 14.07 Ю 10 н/о н/о +23.7 +19.6 78 +29 +29 душно 1015.2 1013.0
17 14.07 Ю 11 н/о н/о +23.6 +18.3 72 +28 +28 душно 1014.1 1011.9
18 14.07 Ю 12 н/о н/о +23.6 +17.3 68 +27 +27 жарко 1013.8 1011.6
20 14.07 Ю 12 н/о н/о +23.8 +18.7 73 +28 +28 душно 1013.7 1011.5
21 14.07 Ю 12 н/о н/о +23.9 +18.5 72 +28 +28 душно 1013.9 1011.7
23 14.07 ЮВ 13 н/о н/о +24.7 +19.3 72 +30 +30 очень
душно
1015.1 1012.9
00 15.07 ЮВ 13 н/о н/о +26.5 +19.4 65 +32 +32 очень
душно
1015.5 1013.3
02 15.07 ЮВ 12 н/о н/о +26.4 +19.5 66 +32 +32 очень
душно
1014.6 1012.4 +23.1
03 15.07 ЮВ 13 н/о н/о +27.0 +20.1 66 +33 +33 очень
душно
1013.9 1011.7
05 15.07 Ю 11 н/о н/о +26.8 +20.4 68 +33 +33 очень
душно
1012.4 1010.2
06 15.07 ЮВ 12 н/о н/о +26.4 +20.7 71 +33 +33 очень
душно
1011.8 1009.6
08 15.07 Ю 11 н/о н/о +24.7 +21.4 82 +31 +31 очень
душно
1012.2 1010.0
09 15.07 Ю 10 н/о н/о +24.2 +21.7 86 +31 +31 очень
душно
1012.7 1010.5
11 15.07 ЮВ 11 н/о н/о +24.8 +20.3 76 +31 +31 очень
душно
1014.1 1011.9
12 15.07 ЮВ 10 н/о н/о +24.5 +20.2 77 +30 +30 очень
душно
1014.7 1012.5
14 15.07 ЮВ 11 н/о н/о +23.9 +20.0 79 +29 +29 душно 1014.1 1011.9 +28.0
15 15.07 ЮВ 10 н/о н/о +23.8 +19.1 75 +29 +29 душно 1013.8 1011.6
17 15.07 ЮВ 10 н/о н/о +23.4 +19.8 80 +30 +30 очень
душно
1013.6 1011.4
18 15.07 Ю 10 н/о н/о +23.5 +20.0 81 +29 +29 душно 1013.4 1011.2
20 15.07 Ю 10 н/о н/о +23.4 +19.5 79 +30 +30 очень
душно
1013.6 1011.4
21 15.07 Ю 11 н/о н/о +23.3 +19.2 78 +30 +30 очень
душно
1013.7 1011.5
23 15.07 ЮВ 11 н/о н/о +24.3 +19.1 73 +29 +29 душно 1015.1 1012.9
00 16.07 ЮВ 11 н/о н/о +24.6 +19.4 73 +30 +30 очень
душно
1015.6 1013.4
02 16.07 Ю 11 н/о н/о +26.7 +20.1 67 +33 +33 очень
душно
1014.5 1012.3 +23.3
03 16.07 ЮВ 11 н/о н/о +27.3 +20.4 66 +34 +34 очень
душно
1013.9 1011.7
05 16.07 ЮВ 12 н/о н/о +27.0 +20.8 69 +34 +34 очень
душно
1012.4 1010.2
06 16.07 ЮВ 12 н/о н/о +26.7 +20.1 67 +33 +33 очень
душно
1012.1 1009.9
08 16.07 ЮВ 12 н/о н/о +24.6 +19.4 73 +30 +30 очень
душно
1012.5 1010.3
09 16.07 ЮВ 11 н/о н/о +24.5 +20.2 77 +30 +30 очень
душно
1012.9 1010.7
11 16.07 ЮВ 10 н/о н/о +24.5 +21.4 83 +31 +31 очень
душно
1013.9 1011.7
12 16.07 ЮВ 10 н/о н/о +24.6 +20.9 80 +31 +31 очень
душно
1014.3 1012.1
14 16.07 ЮВ 11 н/о н/о +24.0 +20.1 79 +30 +30 очень
душно
1013.9 1011.7 +28.0
15 16.07 ЮВ 11 н/о н/о +23.8 +20.1 80 +29 +29 душно 1013.7 1011.5
17 16.07 ЮВ 11 н/о н/о +23.3 +19.0 77 +30 +30 очень
душно
1013.2 1011.0
18 16.07 ЮВ 9 н/о н/о +23.1 +19.1 78 +29 +29 очень
душно
1013.0 1010.8
20 16.07 ЮВ 10 н/о н/о +23.2 +19.2 78 +30 +30 очень
душно
1013.2 1011.0
21 16.07 ЮВ 9 н/о н/о +23.4 +19.8 80 +30 +30 очень
душно
1013.7 1011.5
23 16.07 ЮВ 10 н/о н/о +24.9 +20.6 77 +31 +31 очень
душно
1014.4 1012.2
00 17.07 ЮВ 9 н/о н/о +26.3 +20.6 71 +33 +33 очень
душно
1014.6 1012.4
03 17.07 ЮВ 9 н/о н/о +27.8 +19.8 62 +34 +34 очень
душно
1013.1 1010.9

 

Местоположение метеостанции Мыс Уэссел (Северная территория, Австралия): широта -11.01 долгота 136.75 высота над уровнем моря 19 м.

В архиве по умолчанию представлена погода на Мысе Уэссел за последнюю неделю. Архивные данные за месяц целиком и за предыдущие месяцы, начиная с января 2011 года, Вы можете получить, выбрав интересующий диапазон дат из раскрывающегося списка и нажав кнопку "Ввод!".


*Определитесь, кто Вы:
робот инопланетянин человек

Внимание! Время в таблицах - всемирное. Для получения местного времени необходимо прибавить поправку, которая равна 9.5 ч.

Смотрите также архив погоды в соседних городах и на ближайших метеорологических станциях:

Погода в Аэропорту Гоув (Северная территория, Австралия) (141 км)
Погода в Галивинку (Северная территория, Австралия) (169 км)
Погода в Милинджимби (Северная территория, Австралия) (236 км)
Погода на Острове Северо-восточный (Северная территория, Австралия) (294 км)
Погода в Манингриде (Северная территория, Австралия) (298 км)
Погода в Аэропорту Грут-Айленд (Северная территория, Австралия) (332 км)
Погода в Уорруви (Северная территория, Австралия) (374 км)
Погода в Булман Уимол (Северная территория, Австралия) (396 км)
Погода на Острове Маклер (Северная территория, Австралия) (412 км)
Погода в Джаберу (Северная территория, Австралия) (458 км)

Пояснения к столбцам:

Ветер - указаны скорость ветра в м/с - средняя за 10 мин, порывы в срок и между сроками (в фигурных скобках) и направление, откуда дует ветер: С - северный, СВ - северо-восточный, В - восточный, ЮВ - юго-восточный, Ю - южный, ЮЗ - юго-западный, З - западный, СЗ - северо-западный.
Видимость - горизонтальная дальность видимости в метрах или километрах. При видимости от 1 до 10 км при отсутствии осадков обычно наблюдается дымка, при ухудшении видимости до 1 км и менее - туман. В сухую погоду видимость может ухудшаться дымом, пылью или мглою.
Явления - указаны атмосферные явления, наблюдавшиеся в срок или в последний час перед сроком; фигурными скобками обозначены явления, наблюдавшиеся между сроками (за 1-3 часа до срока); квадратными скобками обозначены град или гололедные отложения с указанием их диаметра в мм.
Облачность - указаны через наклонную черту общая и нижняя облачность в баллах и высота нижней границы облаков в метрах; квадратными скобками обозначены формы облаков: Ci - перистые, Cs - перисто-слоистые, Cc - перисто-кучевые, Ac - высококучевые, As - высокослоистые, Sc - слоисто-кучевые, Ns - слоисто-дождевые, Cu - кучевые, Cb - кучево-дождевые. Подробнее классификацию облаков см. в Атласе облаков (PDF).
T - Температура воздуха - температура, измеренная на высоте 2 м над землей.
Td - Температура точки росы - температура, при понижении до которой содержащийся в воздухе водяной пар достигнет насыщения.
f - Относительная влажность воздуха - влажноcть воздуха, измеренная на высоте 2 м над землей.
Te - Эффективная температура - температура, которую ощущает одетый по сезону человек в тени. Характеристика душности погоды. При расчете учитывается влияние влажности воздуха и скорости ветра на теплоощущения человека.
Tes - Эффективная температура на солнце - температура, которую ощущает человек, с поправкой на солнечный нагрев. Характеристика знойности погоды. Зависит от высоты солнца над горизонтом, облачности и скорости ветра. Ночью, в пасмурную погоду, а также при ветре 12 м/с и более поправка равна нулю.
P - Атмосферное давление - приведенное к уровню моря атмосферное давление.
Po - Атмосферное давление - измеренное на уровне метеостанции атмосферное давление.
Tmin - Минимальная температура - минимум температуры воздуха на высоте 2 м над землей.
Tmax - Максимальная температура - максимум температуры воздуха на высоте 2 м над землей.
R - Количество осадков - Количество выпавших осадков за период времени, мм. При наведении курсора мыши на число - период времени, за который выпало указанное количество осадков.
R24 - Количество осадков - Количество выпавших осадков за 24 часа, мм.
S - Снежный покров - Высота снежного покрова, см. При наведении курсора мыши на число - состояние снежного покрова и степень покрытия местности в баллах.